Probability
0 0 0 0 0 0 0 0 0 0 0 0 0 0 0 0 0 0 0 0 0 0 0 0 0 0 0 0 0 0 0 0 0 0 0 0 0 0 0 0 0 0 0 0
0 0 0 0 0 0 0 0 0 0 0 0 0 0 0 0 0 0 0 0 0 0 0 0 0 0 0 0 0 0 0 0 0 0 0 0 0 0 0 0 0 0 0 0
0 0 0 0 0 0 0 0 0 0 0 0 0 0 0 0 0 0 0 0 0 0 0 0 0 0 0 0 0 0 0 0 0 0 0 0 0 0 0 0 0 0 0 0
0 0 0 0 0 0 0 0 0 0 0 0 0 0 0 0 0 0 0 0 0 0 0 0 0 0 0 0 0 0 0 0 0 0 0 0 0 0 0 0 0 0 0 0
0 0 0 0 0 0 0 0 0 0 0 0 0 0 0 0 0 0 0 0 0 0 0 0 0 0 0 0 0 0 0 0 0 0 0 0 0 0 0 0 0 0 0 0
0 0 0 0 0 0 0 0 0 0 0 0 0 0 0 0 0 0 0 0 0 0 0 0 0 0 0 0 0 0 0 0 0 0 0 0 0 0 0 0 0 0 0 0
0 0 0 0 0 0 0 0 0 0 0 0 0 0 0 0 0 0 0 0 0 0 0 0 0 0 0 0 0 0 0 0 0 0 0 0 0 0 0 0 0 0 0 0
0 0 0 0 0 0 0 0 0 0 0 0 0 0 0 0 0 0 0 0 0 0 0 0 0 0 0 0 0 0 0 0 0 0 0 0 0 0 0 0 0 0 0 0
0 0 0 0 0 0 0 0 0 0 0 0 0 0 0 0 0 0 0 0 0 0 0 0 0 0 0 0 0 0 0 0 0 0 0 0 0 0 0 0 0 0 0 0
0 0 0 0 0 0 0 0 0 0 0 0 0 0 0 0 0 0 0 0 0 0 0 0 0 0 0 0 0 0 0 0 0 0 0 0 0 0 0 0 0 0 0 0
0 0 0 0 0 0 0 0 0 0 0 0 0 0 0 0 0 0 0 0 0 0 0 0 0 0 0 0 0 0 0 0 0 0 0 0 0 0 0 0 0 0 0 0
0 0 0 0 0 0 0 0 0 0 0 0 0 0 0 0 0 0 0 0 0 0 0 0 0 0 0 0 0 0 0 0 0 0 0 0 0 0 0 0 0 0 0 0
0 0 0 0 0 0 0 0 0 0 0 0 0 0 0 0 0 0 0 0 0 0 0 0 0 0 0 0 0 0 0 0 0 0 0 0 0 0 0 0 0 0 0 0
0 0 0 0 0 0 0 0 0 0 0 0 0 0 0 0 0 0 0 0 0 0 0 0 0 0 0 0 0 0 0 0 0 0 0 0 0 0 0 0 0 0 0 0
0 0 0 0 0 0 0 0 0 0 0 0 0 0 0 0 0 0 0 0 0 0 0 0 0 0 0 0 0 0 0 0 0 0 0 0 0 0 0 0 0 0 0 0
0 0 0 0 0 0 0 0 0 0 0 0 0 0 0 0 0 0 0 0 0 0 0 0 0 0 0 0 0 0 0 0 0 0 0 0 0 0 0 0 0 0 0 0
0 0 0 0 0 0 0 0 0 0 0 0 0 0 0 0 0 0 0 0 0 0 0 0 0 0 0 0 0 0 0 0 0 0 0 0 0 0 0 0 0 0 0 0
0 0 0 0 0 0 0 0 0 0 0 0 0 0 0 0 0 0 0 0 0 0 0 0 0 0 0 0 0 0 0 0 0 0 0 0 0 0 0 0 0 0 0 0
0 0 0 0 0 0 0 0 0 0 0 0 0 0 0 0 0 0 0 0 0 0 0 0 0 0 0 0 0 0 0 0 0 0 0 0 0 0 0 0 0 0 0 0
0 0 0 0 0 0 0 0 0 0 0 0 0 0 0 0 0 0 0 0 0 0 0 0 0 0 0 0 0 0 0 0 0 0 0 0 0 0 0 0 0 0 0 0
0 0 0 0 0 0 0 0 0 0 0 0 0 0 0 0 0 0 0 0 0 0 0 0 0 0 0 0 0 0 0 0 0 0 0 0 0 0 0 0 0 0 0 0
0 0 0 0 0 0 0 0 0 0 0 0 0 0 0 0 0 0 0 0 0 0 0 0 0 0 0 0 0 0 0 0 0 0 0 0 0 0 0 0 0 0 0 0
0 0 0 0 0 0 0 0 0 0 0 0 0 0 0 0 0 0 0 0 0 0 0 0 0 0 0 0 0 0 0 0 0 0 0 0 0 0 0 0 0 0 0 0
0 0 0 0 0 0 0 0 0 0 0 0 0 0 0 0 0 0 0 0 0 0 0 0 0 0 0 0 0 0 0 0 0 0 0 0 0 0 0 0 0 0 0 0
0 0 0 0 0 0 0 0 0 0 0 0 0 0 0 0 0 0 0 0 0 0 0 0 0 0 0 0 0 0 0 0 0 0 0 0 0 0 0 0 0 0 0 0
0 0 0 0 0 0 0 0 0 0 0 0 0 0 0 0 0 0 0 0 0 0 0 0 0 0 0 0 0 0 0 0 0 0 0 0 0 0 0 0 0 0 0 0
0 0 0 0 0 0 0 0 0 0 0 0 0 0 0 0 0 0 0 0 0 0 0 0 0 0 0 0 0 0 0 0 0 0 0 0 0 0 0 0 0 0 0 0
Height
5777 5778 5779 5780 5781 5781 5782 5782 5782 5784 5785 5787 5787 5787 5788 5788 5789 5790 5791 5792 5792 5792 5792 5792 5791 5791 5790 5790 5789 5787 5786 5785 5784 5784 5783 5782 5781 5780 5779 5777 5775 5774 5772 5770
5771 5771 5772 5773 5774 5775 5776 5776 5777 5778 5779 5780 5780 5780 5781 5782 5783 5784 5785 5785 5786 5786 5786 5786 5785 5785 5784 5784 5783 5782 5780 5779 5779 5778 5777 5776 5775 5774 5773 5771 5770 5768 5766 5765
5765 5765 5765 5767 5769 5770 5770 5770 5771 5771 5774 5773 5773 5773 5774 5775 5776 5777 5778 5779 5779 5779 5780 5780 5779 5779 5778 5778 5777 5776 5775 5774 5773 5772 5771 5770 5770 5769 5767 5766 5764 5763 5761 5759
5757 5759 5758 5764 5763 5763 5763 5764 5764 5765 5766 5766 5766 5767 5767 5768 5769 5770 5771 5772 5772 5772 5773 5773 5773 5773 5772 5772 5771 5770 5769 5768 5767 5766 5765 5764 5763 5763 5761 5760 5758 5757 5755 5753
5750 5750 5752 5756 5756 5756 5756 5757 5758 5758 5758 5759 5759 5759 5760 5761 5762 5763 5763 5764 5765 5765 5766 5766 5766 5766 5765 5765 5764 5763 5763 5762 5761 5760 5759 5758 5757 5756 5755 5754 5752 5750 5749 5746
5743 5743 5744 5750 5749 5748 5750 5750 5751 5751 5751 5752 5752 5752 5754 5754 5754 5755 5755 5756 5757 5758 5758 5759 5759 5759 5758 5758 5757 5757 5756 5756 5755 5754 5753 5752 5751 5750 5749 5747 5746 5744 5742 5740
5735 5735 5737 5741 5741 5742 5743 5744 5744 5744 5744 5744 5744 5745 5745 5745 5746 5746 5747 5748 5749 5750 5751 5751 5751 5751 5751 5751 5750 5750 5750 5749 5748 5747 5746 5745 5744 5743 5742 5740 5739 5737 5735 5733
5728 5728 5732 5733 5733 5734 5735 5735 5735 5735 5736 5736 5736 5736 5737 5738 5738 5738 5739 5740 5741 5742 5743 5743 5744 5744 5743 5743 5743 5743 5742 5742 5741 5740 5739 5738 5737 5736 5734 5733 5731 5730 5728 5726
5721 5723 5723 5724 5724 5725 5726 5726 5727 5727 5728 5728 5728 5729 5729 5730 5730 5730 5731 5731 5732 5733 5734 5735 5735 5735 5735 5735 5735 5734 5734 5734 5733 5733 5732 5731 5729 5728 5727 5725 5724 5722 5720 5718
5711 5713 5714 5715 5716 5717 5718 5718 5718 5719 5720 5720 5720 5720 5721 5721 5722 5722 5723 5723 5724 5724 5725 5726 5726 5727 5727 5727 5726 5726 5726 5726 5725 5725 5724 5722 5721 5720 5719 5717 5716 5714 5712 5710
5702 5704 5705 5706 5707 5708 5708 5709 5709 5710 5711 5711 5711 5712 5712 5712 5713 5713 5714 5714 5715 5715 5716 5717 5717 5718 5718 5718 5718 5718 5718 5717 5717 5716 5715 5714 5713 5712 5710 5709 5707 5705 5703 5701
5694 5695 5695 5697 5697 5698 5699 5700 5700 5701 5702 5702 5703 5703 5703 5703 5704 5704 5705 5705 5705 5706 5707 5707 5708 5708 5709 5709 5709 5709 5709 5708 5708 5707 5707 5706 5705 5703 5701 5700 5698 5696 5694 5691
5683 5684 5685 5687 5688 5689 5689 5690 5691 5692 5692 5693 5693 5694 5694 5694 5694 5694 5695 5695 5696 5696 5697 5697 5698 5699 5699 5699 5699 5700 5700 5699 5699 5698 5697 5696 5695 5694 5692 5691 5688 5686 5684 5682
5673 5674 5675 5677 5678 5679 5680 5680 5681 5682 5683 5683 5684 5684 5684 5684 5684 5684 5684 5685 5685 5686 5687 5687 5688 5689 5689 5689 5690 5690 5690 5690 5689 5689 5688 5686 5685 5684 5683 5681 5679 5677 5675 5672
5663 5664 5665 5666 5668 5669 5670 5670 5671 5672 5673 5673 5673 5674 5674 5674 5674 5674 5674 5674 5675 5676 5676 5677 5677 5678 5678 5679 5679 5680 5680 5680 5679 5679 5678 5677 5676 5674 5673 5671 5669 5667 5665 5663
5654 5654 5655 5656 5657 5658 5659 5660 5660 5661 5662 5662 5662 5663 5663 5663 5663 5663 5664 5664 5665 5665 5666 5666 5667 5668 5668 5669 5669 5670 5670 5670 5669 5669 5668 5667 5665 5664 5662 5660 5659 5657 5655 5653
5644 5644 5645 5646 5647 5648 5649 5649 5649 5650 5650 5651 5651 5652 5652 5652 5653 5653 5653 5654 5654 5655 5655 5656 5657 5657 5658 5658 5659 5659 5659 5659 5659 5658 5657 5656 5655 5653 5652 5650 5649 5647 5645 5643
5634 5635 5635 5636 5636 5637 5637 5638 5638 5638 5639 5639 5640 5640 5641 5641 5642 5643 5643 5643 5644 5644 5645 5646 5646 5647 5647 5648 5648 5648 5648 5648 5648 5647 5646 5645 5644 5643 5642 5640 5638 5636 5634 5632
5625 5625 5626 5626 5626 5626 5626 5626 5626 5627 5627 5627 5628 5629 5629 5630 5631 5631 5632 5632 5633 5634 5634 5635 5635 5636 5637 5637 5637 5637 5637 5637 5637 5636 5636 5635 5634 5633 5632 5630 5628 5627 5624 5622
5616 5616 5616 5615 5615 5615 5615 5615 5615 5615 5616 5616 5617 5618 5618 5619 5620 5620 5621 5621 5622 5623 5623 5624 5625 5625 5626 5626 5626 5626 5626 5626 5626 5625 5625 5624 5623 5622 5621 5620 5618 5617 5615 5612
5607 5606 5606 5606 5606 5605 5605 5605 5605 5605 5606 5606 5606 5607 5608 5608 5609 5610 5610 5611 5611 5611 5612 5613 5614 5615 5615 5615 5616 5616 5615 5615 5614 5614 5614 5613 5613 5612 5611 5610 5608 5607 5605 5602
5598 5597 5597 5596 5596 5595 5595 5595 5595 5595 5596 5596 5596 5596 5597 5598 5599 5599 5600 5600 5601 5601 5602 5603 5604 5605 5605 5605 5605 5605 5605 5604 5604 5604 5603 5603 5603 5602 5601 5599 5598 5596 5594 5592
5589 5588 5587 5587 5586 5586 5585 5585 5585 5585 5586 5586 5586 5587 5587 5588 5588 5589 5590 5591 5591 5592 5592 5593 5594 5594 5595 5595 5595 5595 5595 5594 5594 5594 5594 5593 5593 5592 5591 5589 5588 5586 5584 5582
5580 5580 5579 5578 5577 5577 5576 5576 5576 5576 5576 5576 5577 5577 5577 5578 5579 5579 5580 5580 5581 5581 5582 5583 5584 5584 5585 5585 5585 5585 5585 5585 5584 5584 5584 5583 5583 5582 5581 5579 5578 5576 5574 5572
5572 5571 5571 5570 5569 5568 5567 5567 5566 5566 5566 5567 5567 5567 5568 5569 5569 5570 5570 5571 5571 5572 5573 5574 5574 5575 5575 5575 5575 5575 5575 5575 5575 5575 5575 5574 5573 5572 5571 5569 5568 5566 5564 5562
5564 5563 5562 5561 5561 5560 5559 5559 5558 5558 5558 5558 5558 5558 5559 5559 5560 5560 5561 5562 5562 5563 5564 5565 5565 5566 5566 5566 5566 5566 5566 5566 5566 5566 5565 5564 5564 5562 5561 5560 5558 5556 5555 5553
5556 5555 5554 5554 5553 5552 5552 5551 5551 5551 5551 5551 5550 5551 5551 5551 5552 5552 5553 5554 5554 5555 5556 5556 5556 5556 5556 5557 5557 5557 5557 5557 5556 5556 5555 5555 5554 5553 5551 5550 5549 5547 5545 5543
Wind_Speed
21 21 21 21 22 22 22 22 22 21 22 20 21 21 21 20 19 19 19 18 18 19 19 19 19 18 19 19 19 19 19 19 19 19 20 20 21 21 21 20 21 21 21 21
22 22 23 23 23 23 23 23 22 22 21 20 22 23 22 21 21 20 20 20 19 20 20 21 20 19 19 19 19 20 20 20 20 20 20 20 21 21 21 21 21 21 22 22
23 23 24 24 22 24 25 24 24 23 21 21 23 23 23 23 22 21 22 22 22 22 22 21 20 20 20 20 21 21 20 20 21 22 22 22 22 21 22 22 22 22 23 23
24 24 26 24 24 25 25 25 25 25 23 23 23 24 25 25 24 23 23 23 23 23 23 22 22 21 22 22 22 21 21 22 22 23 22 22 22 22 22 22 22 23 23 23
26 26 26 25 25 25 26 26 26 25 24 24 24 25 25 26 26 25 25 25 24 24 24 24 24 23 23 23 23 23 23 22 22 23 23 23 23 23 23 23 23 24 24 24
28 28 27 25 25 26 27 27 26 26 26 25 25 26 25 26 27 27 26 26 26 26 25 25 25 25 25 25 25 24 24 23 23 23 24 23 24 24 25 25 25 25 25 25
29 30 29 27 26 27 28 27 26 26 26 26 26 26 26 26 27 28 28 28 27 26 26 26 26 26 26 27 26 26 25 25 24 25 25 25 25 25 26 26 26 27 27 27
31 31 30 28 28 28 28 27 27 27 27 26 26 26 26 27 27 28 29 29 29 28 28 28 28 28 27 28 28 27 27 26 26 26 26 27 27 27 27 27 27 28 28 29
32 32 31 29 29 29 29 29 28 28 28 27 26 26 26 27 27 28 29 30 30 29 29 29 29 29 28 28 28 28 27 26 27 27 27 28 27 27 27 28 28 28 29 29
33 32 31 31 30 29 30 30 29 29 29 29 29 28 28 28 29 29 29 30 30 30 30 30 29 29 29 28 28 28 28 28 27 28 28 28 29 29 29 29 29 29 30 30
33 32 32 32 31 31 31 31 30 30 30 29 29 30 30 30 30 30 30 31 31 31 32 31 30 30 30 30 29 29 29 29 29 29 28 29 29 30 30 30 30 30 30 30
33 32 33 33 32 32 32 31 30 30 31 31 31 31 31 31 31 31 31 31 31 32 32 33 32 32 32 31 30 30 30 30 30 30 30 30 30 30 31 31 32 32 32 32
33 33 34 33 33 33 32 32 32 32 32 32 32 31 32 33 33 33 32 33 33 33 33 34 34 33 32 32 31 31 31 31 31 31 31 32 31 31 31 32 33 33 33 33
34 34 34 34 34 34 34 33 33 33 33 34 33 32 32 33 32 32 32 33 34 34 34 34 34 33 32 32 32 32 31 31 31 32 32 32 32 32 33 33 32 32 32 33
34 34 34 34 34 35 34 34 34 34 34 34 35 34 34 34 34 33 33 32 33 34 33 33 33 33 32 32 31 32 32 33 33 33 33 33 33 33 34 33 33 33 32 33
32 33 33 33 34 34 35 35 35 35 35 35 35 35 34 34 33 33 33 32 32 32 33 33 33 33 33 32 32 32 33 34 34 34 34 34 34 33 33 33 33 33 33 33
32 32 32 32 33 33 34 35 36 36 37 36 35 35 35 34 33 33 33 33 33 33 33 33 32 32 32 32 33 33 34 34 35 35 34 34 34 33 33 33 33 33 34 34
31 32 33 33 33 33 34 35 36 36 36 36 35 35 34 33 33 32 33 33 33 32 32 32 32 31 32 33 34 34 35 35 35 34 34 33 33 33 33 33 33 33 33 33
30 30 32 33 34 34 34 35 35 35 35 35 35 34 34 34 34 34 33 34 34 33 34 33 32 32 32 33 33 34 34 34 35 34 34 33 33 33 33 32 32 32 32 33
30 30 31 32 33 33 33 33 33 32 32 33 33 33 33 33 33 33 33 33 33 34 34 33 32 32 33 33 33 33 34 34 34 34 33 33 33 32 32 32 32 32 32 33
30 30 31 31 31 32 32 32 31 31 30 30 31 32 32 32 32 32 32 32 31 32 32 31 31 31 31 32 32 32 33 33 33 33 32 32 32 32 32 32 32 32 32 32
29 30 30 30 30 30 30 31 31 31 31 31 31 31 31 31 31 32 32 32 32 32 31 30 30 30 30 31 30 31 31 31 31 31 31 31 31 31 31 31 32 32 32 32
27 27 27 27 28 29 29 29 29 30 30 30 31 31 30 30 30 31 31 31 32 32 31 30 30 30 29 29 30 30 30 30 30 30 30 30 31 31 31 31 31 32 32 32
25 25 26 26 26 27 27 28 28 29 29 30 30 30 29 29 29 29 30 30 31 30 30 30 29 29 29 29 29 30 30 30 29 29 30 30 30 30 30 31 31 31 31 31
25 25 25 26 26 26 26 27 27 28 28 28 28 28 29 29 28 29 29 29 29 28 28 28 28 28 28 28 28 28 28 28 29 29 29 29 30 31 31 31 31 31 31 31
25 25 25 26 25 25 24 25 25 25 26 26 26 27 27 27 27 27 27 27 27 27 27 27 27 27 27 27 27 27 27 28 29 29 29 30 30 31 31 30 30 30 30 30
24 25 24 24 24 24 23 23 23 23 23 23 23 23 24 24 25 25 25 25 25 26 26 26 26 26 26 27 26 26 26 27 27 28 28 29 29 30 29 29 29 30 30 29
Wind_Direction
257 255 256 256 257 260 263 266 268 268 265 263 262 262 262 260 257 258 257 257 259 261 263 266 268 272 275 277 281 285 283 282 281 283 284 285 287 289 291 292 294 297 297 296
259 257 256 255 256 259 263 266 268 269 268 267 263 261 261 259 256 257 258 261 262 264 265 266 269 273 276 278 282 284 283 280 280 282 283 283 285 288 290 293 294 296 297 297
261 259 256 256 257 260 264 267 269 269 268 267 263 259 259 259 258 257 259 261 263 266 268 268 270 274 278 278 281 283 281 281 280 280 281 281 282 286 289 290 292 294 296 298
261 259 257 261 260 261 264 266 268 270 270 266 265 263 261 259 260 261 262 263 263 265 267 268 270 273 275 276 279 280 279 280 281 281 281 281 281 284 287 288 290 293 294 296
262 261 261 261 261 262 263 265 266 269 269 266 264 264 261 260 260 261 262 263 263 263 266 267 268 272 274 276 278 279 278 279 281 282 282 281 282 283 287 288 289 291 293 294
262 263 264 264 262 262 264 265 264 267 269 267 266 266 264 261 260 260 260 261 262 263 264 266 267 270 274 276 277 277 278 279 281 282 282 281 282 284 286 287 288 290 292 293
261 263 265 267 265 265 265 267 267 268 270 270 268 268 265 263 262 261 260 260 261 262 264 265 267 270 273 274 275 275 277 279 280 282 282 282 283 285 286 287 288 289 291 293
260 262 263 265 267 266 266 266 266 267 269 270 269 268 267 266 265 265 263 262 262 262 264 265 267 270 272 273 273 274 275 277 278 280 282 283 284 286 287 287 288 289 291 293
262 263 264 265 266 266 266 266 266 267 267 269 269 268 267 267 267 266 266 265 263 264 264 265 267 269 271 271 271 272 274 275 276 279 281 281 283 285 286 287 288 289 291 293
262 262 264 264 266 267 267 267 267 268 268 268 268 269 268 268 268 267 266 265 264 264 264 266 267 268 270 269 269 271 273 274 275 277 279 281 282 283 286 287 288 290 292 293
263 264 264 264 264 265 266 266 266 267 267 266 267 268 268 268 267 267 267 266 264 264 263 263 266 268 269 268 268 270 272 273 274 277 279 281 282 284 286 287 288 290 292 293
262 263 262 262 262 263 264 265 265 265 266 267 267 268 269 268 268 267 266 265 263 263 262 263 264 265 266 266 266 268 271 273 274 275 278 280 282 284 286 287 288 290 291 292
263 262 263 262 262 263 264 265 265 264 265 267 268 270 270 269 268 268 266 265 263 262 263 264 265 265 265 265 265 267 270 271 274 276 278 279 281 284 286 287 289 290 292 292
263 263 262 262 262 264 265 266 266 266 266 267 267 269 270 269 270 270 268 264 263 263 263 264 265 265 264 265 265 266 268 271 274 276 279 280 282 284 286 288 288 288 289 290
263 263 263 261 262 263 264 265 267 267 268 268 268 268 270 270 270 271 269 266 264 264 264 264 264 265 266 266 266 266 268 270 273 276 278 280 282 284 285 286 286 286 286 288
264 263 262 262 262 263 265 266 267 268 269 269 269 268 269 269 269 269 269 268 267 267 266 266 265 265 267 266 267 268 269 271 274 275 277 280 282 284 285 286 286 286 286 287
264 264 264 265 264 265 266 267 267 268 269 269 269 268 268 268 269 269 268 267 266 266 265 265 266 269 267 267 267 268 270 271 273 274 276 279 281 283 285 286 287 287 287 288
266 266 266 267 267 267 268 269 268 269 269 268 267 267 268 268 267 267 268 267 266 266 264 264 266 268 268 268 268 269 270 271 272 274 276 278 280 282 284 286 288 289 289 289
267 267 267 267 268 269 271 271 270 269 268 267 267 267 267 267 268 269 269 267 265 264 264 264 266 268 269 269 269 270 270 271 272 274 276 278 279 280 283 285 287 289 289 289
268 269 269 269 269 270 271 271 270 269 269 268 268 267 267 268 269 270 270 269 265 264 265 265 266 268 269 270 271 272 272 272 273 274 276 277 279 280 282 284 286 288 289 290
269 269 269 269 269 269 269 269 268 268 269 269 270 269 269 269 269 269 269 269 267 265 265 265 267 269 271 271 272 273 273 274 274 275 276 277 279 280 281 283 285 287 289 290
271 271 270 269 269 269 269 269 268 268 268 269 270 270 270 269 268 268 269 269 268 266 265 265 267 269 270 271 272 273 274 274 274 275 276 278 279 280 281 283 285 287 288 289
270 271 271 272 272 270 270 270 269 268 269 270 270 270 269 268 268 268 268 268 268 267 266 266 268 269 271 271 272 273 275 275 274 275 276 277 278 280 282 284 285 287 288 289
270 271 272 274 275 274 272 270 268 269 269 270 270 269 268 268 268 267 267 268 268 267 267 267 267 268 271 273 273 273 273 273 273 274 276 277 278 280 282 284 285 286 287 288
271 272 274 274 276 277 275 273 270 269 270 269 268 267 267 267 267 268 267 267 267 266 266 267 269 270 271 273 274 273 272 272 273 274 275 276 279 281 282 284 285 286 287 289
272 274 275 275 276 277 275 273 270 270 270 269 267 267 267 267 268 268 267 267 266 266 268 269 270 271 272 273 273 273 273 273 273 275 276 278 280 281 282 283 284 285 287 289
274 275 276 275 276 276 276 273 272 271 271 270 270 269 268 268 267 267 267 266 266 267 269 271 272 272 273 273 273 273 274 274 275 277 277 279 280 281 282 283 284 286 287 287